| time (UTC) | temp C | wind direction | speed KPH | gust KPH | rain 1hr cm | rain 24hr cm | rain mn cm | humidity % | barometer mb |
| 20260509170029 | 16 | 315 | 4.8 | 12.9 | 0.00 | 0.00 | 0.00 | 70 | 1020.7 |
| 20260509164525 | 15 | 289 | 4.8 | 12.9 | 0.00 | 0.00 | 0.00 | 72 | 1020.8 |
| 20260509163017 | 15 | 276 | 1.6 | 9.7 | 0.00 | 0.00 | 0.00 | 74 | 1021.0 |
| 20260509161520 | 15 | 290 | 4.8 | 14.5 | 0.00 | 0.00 | 0.00 | 75 | 1021.3 |
| 20260509160026 | 14 | 305 | 6.4 | 11.3 | 0.00 | 0.00 | 0.00 | 76 | 1021.6 |
| 20260509154516 | 13 | 279 | 4.8 | 12.9 | 0.00 | 0.00 | 0.00 | 79 | 1021.7 |
| 20260509153014 | 12 | 343 | 1.6 | 4.8 | 0.00 | 0.00 | 0.00 | 85 | 1021.7 |
| 20260509151518 | 11 | 335 | 0.0 | 3.2 | 0.00 | 0.00 | 0.00 | 86 | 1021.8 |
| 20260509150032 | 11 | 304 | 0.0 | 3.2 | 0.00 | 0.00 | 0.00 | 87 | 1022.0 |
| 20260509144532 | 10 | 336 | 0.0 | 3.2 | 0.00 | 0.00 | 0.00 | 89 | 1021.9 |
| 20260509143014 | 9 | 342 | 0.0 | 1.6 | 0.00 | 0.00 | 0.00 | 90 | 1021.9 |
| 20260509141521 | 8 | 306 | 0.0 | 3.2 | 0.00 | 0.00 | 0.00 | 93 | 1021.9 |
| 20260509140022 | 7 | 290 | 1.6 | 3.2 | 0.00 | 0.00 | 0.00 | 95 | 1021.9 |
| 20260509134524 | 7 | 240 | 1.6 | 3.2 | 0.00 | 0.00 | 0.00 | 94 | 1021.7 |
| 20260509133026 | 6 | 247 | 0.0 | 3.2 | 0.00 | 0.00 | 0.00 | 94 | 1021.5 |
| 20260509131525 | 6 | 232 | 1.6 | 3.2 | 0.00 | 0.00 | 0.00 | 94 | 1021.7 |
| 20260509130021 | 5 | 225 | 0.0 | 3.2 | 0.00 | 0.00 | 0.00 | 93 | 1021.7 |
| 20260509124526 | 5 | 224 | 0.0 | 1.6 | 0.00 | 0.00 | 0.00 | 93 | 1021.8 |
| 20260509123026 | 6 | 224 | 0.0 | 0.0 | 0.00 | 0.00 | 0.00 | 92 | 1021.7 |
| 20260509121529 | 6 | 224 | 0.0 | 0.0 | 0.00 | 0.00 | 0.00 | 92 | 1021.8 |
| 20260509120020 | 6 | 224 | 0.0 | 3.2 | 0.00 | 0.00 | 0.00 | 92 | 1022.0 |
| 20260509114527 | 6 | 215 | 0.0 | 3.2 | 0.00 | 0.00 | 0.00 | 92 | 1022.0 |
| 20260509113025 | 6 | 215 | 0.0 | 3.2 | 0.00 | 0.00 | 0.00 | 92 | 1022.0 |
| 20260509111528 | 7 | 33 | 0.0 | 3.2 | 0.00 | 0.00 | 0.00 | 91 | 1022.0 |
| 20260509110029 | 7 | 16 | 0.0 | 3.2 | 0.00 | 0.00 | 0.00 | 91 | 1022.1 |
| 20260509104523 | 7 | 26 | 0.0 | 3.2 | 0.00 | 0.00 | 0.00 | 91 | 1022.3 |
| 20260509103008 | 7 | 235 | 0.0 | 3.2 | 0.00 | 0.00 | 0.00 | 90 | 1022.4 |
| 20260509101507 | 8 | 235 | 0.0 | 3.2 | 0.00 | 0.00 | 0.00 | 89 | 1022.5 |
| 20260509100022 | 8 | 235 | 0.0 | 3.2 | 0.00 | 0.00 | 0.00 | 90 | 1022.4 |
| 20260509094523 | 8 | 253 | 1.6 | 4.8 | 0.00 | 0.00 | 0.00 | 90 | 1022.5 |
| 20260509093024 | 8 | 244 | 1.6 | 3.2 | 0.00 | 0.00 | 0.00 | 90 | 1022.5 |
| 20260509091515 | 8 | 244 | 1.6 | 4.8 | 0.00 | 0.00 | 0.00 | 91 | 1022.6 |
| 20260509090014 | 8 | 280 | 0.0 | 3.2 | 0.00 | 0.00 | 0.00 | 90 | 1022.7 |
| 20260509084518 | 8 | 265 | 0.0 | 3.2 | 0.00 | 0.00 | 0.00 | 89 | 1022.7 |
| 20260509083023 | 9 | 252 | 0.0 | 3.2 | 0.00 | 0.00 | 0.00 | 88 | 1022.9 |
| 20260509081506 | 9 | 275 | 0.0 | 3.2 | 0.00 | 0.00 | 0.00 | 88 | 1023.0 |
| 20260509080011 | 9 | 263 | 0.0 | 3.2 | 0.00 | 0.00 | 0.00 | 88 | 1023.0 |
| 20260509074516 | 10 | 243 | 1.6 | 3.2 | 0.00 | 0.00 | 0.00 | 88 | 1023.1 |
| 20260509073022 | 10 | 240 | 0.0 | 3.2 | 0.00 | 0.00 | 0.00 | 87 | 1023.1 |
| 20260509071524 | 10 | 290 | 0.0 | 4.8 | 0.00 | 0.00 | 0.00 | 86 | 1023.1 |
| 20260509070010 | 10 | 232 | 1.6 | 4.8 | 0.00 | 0.00 | 0.00 | 87 | 1023.1 |
| 20260509064515 | 10 | 259 | 0.0 | 3.2 | 0.00 | 0.00 | 0.00 | 87 | 1023.0 |
| 20260509063019 | 10 | 254 | 0.0 | 3.2 | 0.00 | 0.00 | 0.00 | 86 | 1023.1 |
| 20260509061525 | 11 | 254 | 0.0 | 3.2 | 0.00 | 0.00 | 0.00 | 85 | 1023.1 |
| 20260509060024 | 11 | 254 | 0.0 | 0.0 | 0.00 | 0.00 | 0.00 | 85 | 1022.9 |
| 20260509054510 | 11 | 254 | 0.0 | 3.2 | 0.00 | 0.00 | 0.00 | 84 | 1023.0 |
| 20260509053016 | 12 | 254 | 0.0 | 3.2 | 0.00 | 0.00 | 0.00 | 83 | 1023.0 |
| 20260509051521 | 12 | 306 | 1.6 | 3.2 | 0.00 | 0.00 | 0.00 | 81 | 1023.0 |
| 20260509050024 | 12 | 219 | 0.0 | 3.2 | 0.00 | 0.00 | 0.00 | 79 | 1022.8 |
| 20260509044526 | 13 | 219 | 0.0 | 3.2 | 0.00 | 0.00 | 0.00 | 78 | 1022.7 |
| 20260509043017 | 13 | 235 | 1.6 | 3.2 | 0.00 | 0.00 | 0.00 | 76 | 1022.6 |
| 20260509041518 | 15 | 238 | 0.0 | 3.2 | 0.00 | 0.00 | 0.00 | 73 | 1022.4 |
| 20260509040023 | 15 | 236 | 0.0 | 3.2 | 0.00 | 0.00 | 0.00 | 70 | 1022.2 |
| 20260509034539 | 16 | 226 | 1.6 | 3.2 | 0.00 | 0.00 | 0.00 | 69 | 1022.0 |
| 20260509033028 | 17 | 233 | 0.0 | 3.2 | 0.00 | 0.00 | 0.00 | 67 | 1021.9 |
| 20260509031516 | 17 | 248 | 1.6 | 3.2 | 0.00 | 0.00 | 0.00 | 64 | 1021.9 |
| 20260509030021 | 18 | 220 | 1.6 | 4.8 | 0.00 | 0.00 | 0.00 | 60 | 1021.7 |
| 20260509024525 | 19 | 229 | 1.6 | 6.4 | 0.00 | 0.00 | 0.00 | 58 | 1021.6 |
| 20260509023031 | 20 | 224 | 1.6 | 6.4 | 0.00 | 0.00 | 0.00 | 55 | 1021.6 |
| 20260509021512 | 20 | 292 | 1.6 | 4.8 | 0.00 | 0.00 | 0.00 | 54 | 1021.5 |
| 20260509020019 | 19 | 267 | 3.2 | 11.3 | 0.00 | 0.00 | 0.00 | 54 | 1021.5 |
| 20260509014524 | 20 | 294 | 1.6 | 4.8 | 0.00 | 0.00 | 0.00 | 53 | 1021.5 |
| 20260509013008 | 20 | 277 | 1.6 | 9.7 | 0.00 | 0.00 | 0.00 | 52 | 1021.6 |
| 20260509011512 | 20 | 292 | 4.8 | 12.9 | 0.00 | 0.00 | 0.00 | 51 | 1021.7 |
| 20260509010017 | 20 | 218 | 3.2 | 16.1 | 0.00 | 0.00 | 0.00 | 52 | 1021.9 |
| 20260509004504 | 20 | 229 | 3.2 | 11.3 | 0.00 | 0.00 | 0.00 | 52 | 1021.8 |
| 20260509003004 | 20 | 287 | 6.4 | 12.9 | 0.00 | 0.00 | 0.00 | 51 | 1021.8 |
| 20260509001510 | 20 | 338 | 0.0 | 8.0 | 0.00 | 0.00 | 0.00 | 53 | 1021.8 |
| 20260509000016 | 20 | 341 | 3.2 | 14.5 | 0.00 | 0.00 | 0.00 | 55 | 1022.0 |
| 20260508234526 | 19 | 15 | 4.8 | 6.4 | 0.00 | 0.00 | 0.00 | 54 | 1022.0 |
| 20260508233006 | 19 | 342 | 3.2 | 6.4 | 0.00 | 0.00 | 0.00 | 55 | 1022.1 |
| 20260508231509 | 20 | 315 | 0.0 | 6.4 | 0.00 | 0.00 | 0.00 | 53 | 1022.1 |
| 20260508230012 | 19 | 53 | 4.8 | 9.7 | 0.00 | 0.00 | 0.00 | 54 | 1022.1 |
| 20260508224522 | 19 | 139 | 3.2 | 8.0 | 0.00 | 0.00 | 0.00 | 53 | 1022.0 |
| 20260508223004 | 19 | 25 | 1.6 | 8.0 | 0.00 | 0.00 | 0.00 | 54 | 1022.1 |
| 20260508221511 | 18 | 51 | 4.8 | 16.1 | 0.00 | 0.00 | 0.00 | 58 | 1022.2 |
| 20260508220013 | 18 | 112 | 1.6 | 11.3 | 0.00 | 0.00 | 0.00 | 55 | 1022.3 |
| 20260508214523 | 18 | 105 | 4.8 | 20.9 | 0.00 | 0.00 | 0.00 | 57 | 1022.3 |
| 20260508213020 | 18 | 136 | 1.6 | 16.1 | 0.00 | 0.00 | 0.00 | 55 | 1022.4 |
| 20260508211505 | 18 | 53 | 4.8 | 17.7 | 0.00 | 0.00 | 0.00 | 55 | 1022.4 |
| 20260508210011 | 18 | 167 | 3.2 | 14.5 | 0.00 | 0.00 | 0.00 | 54 | 1022.3 |
| 20260508204517 | 17 | 103 | 3.2 | 14.5 | 0.00 | 0.00 | 0.00 | 58 | 1022.4 |
| 20260508203030 | 17 | 121 | 6.4 | 17.7 | 0.00 | 0.00 | 0.00 | 56 | 1022.4 |
| 20260508201522 | 17 | 96 | 6.4 | 16.1 | 0.00 | 0.00 | 0.00 | 54 | 1022.4 |
| 20260508200009 | 17 | 126 | 4.8 | 12.9 | 0.00 | 0.00 | 0.00 | 56 | 1022.5 |
| 20260508194517 | 16 | 90 | 6.4 | 16.1 | 0.00 | 0.00 | 0.00 | 55 | 1022.5 |
| 20260508193019 | 16 | 202 | 4.8 | 12.9 | 0.00 | 0.00 | 0.00 | 58 | 1022.6 |
| 20260508191524 | 16 | 57 | 4.8 | 16.1 | 0.00 | 0.00 | 0.00 | 56 | 1022.7 |
| 20260508190014 | 16 | 201 | 8.0 | 16.1 | 0.00 | 0.00 | 0.00 | 56 | 1022.8 |
| 20260508184522 | 16 | 222 | 4.8 | 19.3 | 0.00 | 0.00 | 0.00 | 58 | 1022.7 |
| 20260508183027 | 15 | 196 | 4.8 | 17.7 | 0.00 | 0.00 | 0.00 | 60 | 1022.7 |
| 20260508181521 | 15 | 230 | 9.7 | 20.9 | 0.00 | 0.00 | 0.00 | 58 | 1022.6 |
| 20260508180026 | 15 | 148 | 6.4 | 29.0 | 0.00 | 0.00 | 0.00 | 60 | 1022.5 |
| 20260508174510 | 15 | 149 | 6.4 | 20.9 | 0.00 | 0.00 | 0.00 | 61 | 1022.4 |
| 20260508173015 | 14 | 112 | 6.4 | 19.3 | 0.00 | 0.00 | 0.00 | 62 | 1022.4 |
| 20260508171518 | 14 | 126 | 6.4 | 14.5 | 0.00 | 0.00 | 0.00 | 68 | 1022.3 |